Friday Harbor, WA
on Monday, December 31, 2012

Monday
Previous Day Next Day
Daily Summary
 ActualAverageRecord
Temperature
Mean Temperature °F °F  
Max Temperature 37°F 43°F 48°F (1998)
Min Temperature 33°F 34°F 23°F (2010)
Degree Days
Heating Degree Days 30    
Moisture
Dew Point 34°F   
Average Humidity 94    
Maximum Humidity 100    
Minimum Humidity 89    
Precipitation
Precipitation 0.00 in in in ()
Wind
Wind Speed 1 mph   
Max Wind Speed 6 mph   
Max Gust Speed mph   
Visibility 10 miles   
Events Rain   
Averages and records for this station are not official NWS values.
Key: T is trace of precipitation, MM is missing value
Source: NWS Daily Summary
Seasonal Weather Averages
Time(PST)TemperatureDew PointHumidity Pressure Visibility Wind DirectionWind SpeedGust SpeedPrecipitationEvents Conditions
12:53 AM 34.0°F 33.1°F 96% 30.31 in 10.0 miles Calm Calm - N/A   Scattered Clouds
1:04 AM 35.6°F 33.8°F 93% 30.30 in 10.0 miles Calm Calm - N/A   Mostly Cloudy
1:19 AM 33.8°F 33.8°F 100% 30.30 in 10.0 miles Calm Calm - N/A   Scattered Clouds
1:53 AM 33.1°F 32.0°F 96% 30.31 in 9.0 miles Calm Calm - N/A   Scattered Clouds
2:12 AM 33.8°F 33.8°F 100% 30.30 in 10.0 miles Calm Calm - N/A   Overcast
2:53 AM 34.0°F 33.1°F 96% 30.31 in 10.0 miles Calm Calm - N/A   Mostly Cloudy
3:46 AM 35.6°F 33.8°F 93% 30.29 in 10.0 miles Calm Calm - N/A   Mostly Cloudy
3:53 AM 35.1°F 34.0°F 96% 30.30 in 10.0 miles Calm Calm - N/A   Overcast
4:35 AM 35.6°F 33.8°F 93% 30.28 in 10.0 miles Calm Calm - N/A   Mostly Cloudy
4:53 AM 36.0°F 34.0°F 93% 30.27 in 10.0 miles Calm Calm - N/A   Partly Cloudy
5:41 AM 35.6°F 33.8°F 93% 30.26 in 10.0 miles Calm Calm - N/A   Overcast
5:48 AM 35.6°F 33.8°F 93% 30.26 in 10.0 miles Calm Calm - N/A   Overcast
5:53 AM 35.1°F 34.0°F 96% 30.27 in 10.0 miles Calm Calm - N/A   Overcast
6:37 AM 35.6°F 33.8°F 93% 30.28 in 10.0 miles Calm Calm - N/A   Overcast
6:53 AM 35.1°F 34.0°F 96% 30.29 in 10.0 miles Calm Calm - N/A   Overcast
7:12 AM 35.6°F 33.8°F 93% 30.28 in 10.0 miles Calm Calm - N/A   Overcast
7:53 AM 35.1°F 34.0°F 96% 30.29 in 10.0 miles Calm Calm - N/A   Overcast
8:37 AM 35.6°F 33.8°F 93% 30.29 in 10.0 miles Calm Calm - N/A   Overcast
8:53 AM 36.0°F 34.0°F 93% 30.31 in 10.0 miles Calm Calm - N/A   Overcast
9:53 AM 36.0°F 35.1°F 97% 30.33 in 10.0 miles Calm Calm - 0.00 in Rain Light Rain
10:53 AM 36.0°F 34.0°F 93% 30.35 in 9.0 miles Calm Calm - 0.00 in Rain Light Rain
11:53 AM 36.0°F 34.0°F 93% 30.35 in 8.0 miles Variable 3.5 mph - 0.00 in Rain Light Rain
12:12 PM 35.6°F 33.8°F 93% 30.34 in 10.0 miles North 4.6 mph - 0.00 in Rain Light Rain
12:25 PM 35.6°F 33.8°F 93% 30.34 in 10.0 miles North 5.8 mph - 0.00 in Rain Light Rain
12:53 PM 36.0°F 34.0°F 93% 30.35 in 10.0 miles Variable 4.6 mph - 0.00 in   Overcast
1:53 PM 37.0°F 35.1°F 93% 30.34 in 10.0 miles North 5.8 mph - N/A   Overcast
2:04 PM 37.4°F 35.6°F 93% 30.34 in 10.0 miles Calm Calm - N/A   Overcast
2:44 PM 37.4°F 35.6°F 93% 30.35 in 10.0 miles Calm Calm - N/A   Overcast
2:53 PM 37.9°F 36.0°F 93% 30.36 in 10.0 miles Calm Calm - N/A   Overcast
3:06 PM 37.4°F 35.6°F 93% 30.36 in 10.0 miles Calm Calm - N/A   Overcast
3:14 PM 37.4°F 35.6°F 93% 30.36 in 10.0 miles Calm Calm - N/A   Overcast
3:50 PM 37.4°F 35.6°F 93% 30.37 in 10.0 miles Calm Calm - N/A   Overcast
3:53 PM 37.0°F 35.1°F 93% 30.38 in 10.0 miles Calm Calm - N/A   Overcast
4:16 PM 37.4°F 35.6°F 93% 30.37 in 10.0 miles Variable 3.5 mph - N/A   Overcast
4:53 PM 37.0°F 34.0°F 89% 30.38 in 10.0 miles Calm Calm - N/A   Overcast
5:42 PM 37.4°F 35.6°F 93% 30.38 in 10.0 miles NNW 3.5 mph - N/A   Overcast
5:53 PM 37.0°F 35.1°F 93% 30.39 in 10.0 miles Calm Calm - N/A   Overcast
6:53 PM 36.0°F 34.0°F 93% 30.40 in 10.0 miles Calm Calm - N/A   Scattered Clouds
8:27 PM 35.6°F 33.8°F 93% 30.42 in 10.0 miles WNW 3.5 mph - N/A   Mostly Cloudy
8:53 PM 36.0°F 35.1°F 97% 30.43 in 10.0 miles Calm Calm - N/A   Overcast
9:44 PM 37.4°F 35.6°F 93% 30.44 in 10.0 miles Calm Calm - N/A   Overcast
10:36 PM 37.4°F 35.6°F 93% 30.45 in 10.0 miles Calm Calm - N/A   Overcast
10:53 PM 37.0°F 36.0°F 96% 30.47 in 10.0 miles Calm Calm - N/A   Overcast
11:53 PM 37.9°F 36.0°F 93% 30.48 in 10.0 miles Calm Calm - N/A   Overcast
Moon Phase
Dec. 31 Jan. 04 Jan. 11 Jan. 18 Jan. 26
Sunrise:08:04 AM (PST) Moon Rise:08:22 PM (PST)12/31
Sunset:04:26 PM (PST) Moon Set:09:31 AM (PST)12/31

Copyright © 2014 The Weather Underground, Inc.